www.pogodaiklimat.ru

Погода и климат >> Архив погоды >> Индия >> Jagdalpur


ПОГОДА в Jagdalpur

  • Прогноз погоды в Jagdalpur
  • Монитор погоды в Jagdalpur
  • Климат города

АРХИВ ПОГОДЫ в Jagdalpur

Время (UTC), дата Ветер
(напр.,м/с)
 
Видим.   Явления Облачность Т
(С)
Тd
(С)
f
(%)
Тe
(С)
Тes
(С)
Комфортность P
(гПа)
Po
(гПа)
Тmin
(С)
Tmax
(С)
R
(мм)
R24
(мм)
S
(см)
12 14.09 штиль 0 2000 м слабый дождь {гроза} 10/6 450 м
[Frnb As op]
+23.0 +22.4 96 +31 +31 очень
душно
1007.4 946.1 +30.6 68
15 14.09 штиль 0 2000 м слабый дождь {гроза} 10/6 450 м
[Frnb As op]
+22.8 +22.5 98 +31 +31 очень
душно
1008.8 947.3 68
18 14.09 ЮЗ 2 2000 м слабый дождь {гроза} 10/6 300 м
[Frnb As op]
+22.4 +22.1 98 +30 +30 очень
душно
1008.6 947.1 68
21 14.09 штиль 0 4000 м {дождь} 10/6 360 м
[St As trans]
+22.4 +22.1 98 +30 +30 очень
душно
1006.7 945.4 68
00 15.09 штиль 0 4000 м 10/6 450 м
[St As trans]
+22.6 +22.3 98 +30 +30 очень
душно
1006.9 945.6 68
03 15.09 штиль 0 4000 м 8/5 750 м
[Sc Ac trans]
+23.4 +22.8 96 +33 +36 очень
душно
1009.3 948.0 +21.5 68
06 15.09 штиль 0 4000 м 6/6 450 м
[St]
+29.0 +24.6 77 +41 +52 опасность
перегрева
1007.0 946.9
09 15.09 штиль 0 4000 м слабая морось {дождь} 9/6 600 м
[Cu Sc Ac trans]
+25.6 +22.7 84 +34 +38 очень
душно
1004.7 944.1 0.0
12 15.09 штиль 0 4000 м {морось} 6/3 750 м
[Sc Ci fib]
+27.0 +24.5 86 +38 +38 очень
душно
1003.1 942.7 +28.8 0.0
15 15.09 штиль 0 4000 м 6/6 750 м
[Sc]
+26.0 +24.6 92 +37 +37 очень
душно
1005.4 944.8 0.0
18 15.09 штиль 0 4000 м 6/6 750 м
[Sc]
+25.0 +24.1 95 +34 +34 очень
душно
1006.2 945.3 0.0
21 15.09 штиль 0 4000 м 6/6 750 м
[Sc]
+24.6 +24.0 96 +34 +34 очень
душно
1005.0 944.2 0.0
00 16.09 штиль 0 4000 м 4/1 750 м
[Sc Ci fib]
+24.0 +23.1 95 +32 +32 очень
душно
1005.7 944.7 0.0
03 16.09 штиль 0 2000 м мгла {туман} 9/6 450 м
[St As trans]
+24.8 +24.2 96 +34 +36 очень
душно
1006.9 946.0 +23.6 0.0
06 16.09 штиль 0 4000 м 6/4 750 м
[Sc Ac trans]
+27.6 +24.5 83 +39 +52 опасность
солнечного
удара
1005.6 945.3
09 16.09 ЮЗ 3 4000 м 6/6 600 м
[Cu Sc]
+30.0 +25.0 75 +43 +48 опасность
перегрева
1002.4 942.7
12 16.09 штиль 0 4000 м 6/3 600 м
[Sc Ci fib]
+26.4 +25.3 94 +38 +39 очень
душно
1001.6 942.0 +31.7
15 16.09 штиль 0 4000 м 8/5 750 м
[Sc Ac trans]
+26.4 +25.3 94 +38 +38 очень
душно
1004.8 944.4
18 16.09 штиль 0 2000 м слабый дождь {гроза} 10/8 450 м
[Cb cap As op]
+26.4 +25.3 94 +38 +38 очень
душно
1005.3 944.9 0.6
21 16.09 штиль 0 4000 м {гроза, дождь} 10/6 450 м
[St As trans]
+25.4 +24.6 95 +36 +36 очень
душно
1003.6 943.2 1
00 17.09 штиль 0 4000 м гроза без осадков {дождь} 10/6 450 м
[Cb cap As trans]
+25.0 +24.4 96 +35 +35 очень
душно
1004.1 943.3 1
03 17.09 штиль 0 4000 м {гроза, дождь} 9/3 600 м
[Sc As trans]
+25.4 +23.1 87 +34 +37 очень
душно
1005.8 945.1 +23.6 2
06 17.09 штиль 0 4000 м 10/4 600 м
[Sc As trans]
+29.0 +25.7 82 +43 +49 опасность
перегрева
1004.7 944.6
09 17.09 Ю 2 4000 м в посл. час дождь 10/6 750 м
[Sc As op]
+26.4 +24.7 90 +37 +38 очень
душно
1003.1 942.8 0.7
12 17.09 ЮЗ 1 4000 м {дождь} 10/6 600 м
[Sc As trans]
+26.0 +24.6 92 +37 +37 очень
душно
1002.7 942.3 +30.3 0.7
15 17.09 Ю 1 4000 м 10/6 450 м
[St As trans]
+24.8 +23.7 94 +34 +34 очень
душно
1006.0 945.1 0.7
18 17.09 штиль 0 2000 м слабая морось {дождь} 10/6 450 м
[Frnb As op]
+23.6 +22.7 95 +31 +31 очень
душно
1005.7 944.7 1
21 17.09 штиль 0 4000 м {морось} 10/6 450 м
[St As trans]
+23.6 +22.1 91 +30 +30 очень
душно
1003.7 942.9 1
00 18.09 З 1 4000 м 8/4 750 м
[Sc Ac trans]
+23.2 +22.3 95 +32 +32 очень
душно
1004.7 943.7 1
03 18.09 Ю 1 4000 м 10/6 450 м
[St As trans]
+24.4 +22.7 90 +32 +33 очень
душно
1006.8 945.9 +22.1 1
06 18.09 С 1 4000 м 10/6 450 м
[St As trans]
+26.7 +24.0 85 +37 +40 очень
душно
1006.3 945.8
09 18.09 СЗ 1 4000 м {дождь} 8/5 750 м
[Cu Sc Ac trans]
+29.0 +24.6 77 +41 +46 опасность
перегрева
1002.5 942.7 0.0
12 18.09 штиль 0 4000 м гроза, ливневой дождь 10/8 450 м
[Cb cap As op]
+25.0 +22.7 87 +33 +33 очень
душно
1003.9 943.1 +29.6 0.1
15 18.09 штиль 0 4000 м слабый дождь {гроза} 10/6 300 м
[Frnb As op]
+24.0 +23.4 96 +32 +32 очень
душно
1006.2 945.1 3
18 18.09 штиль 0 2000 м слабая морось {дождь} 10/6 300 м
[Frnb As op]
+24.4 +23.5 95 +33 +33 очень
душно
1006.1 945.2 3
21 18.09 штиль 0 4000 м {дождь, морось} 10/6 300 м
[St As op]
+24.2 +23.1 94 +32 +32 очень
душно
1004.2 943.4 3
00 19.09 штиль 0 4000 м 10/6 360 м
[St As trans]
+24.0 +23.1 95 +32 +32 очень
душно
1004.7 943.7 3
03 19.09 Ю 1 2000 м слабая морось 10/6 450 м
[Frnb As op]
+25.0 +23.8 93 +34 +35 очень
душно
1005.5 944.7 +23.0 3
06 19.09 штиль 0 4000 м {морось} 10/6 450 м
[St As trans]
+26.6 +24.4 88 +37 +42 очень
душно
1004.8 944.4 0.1
09 19.09 З 1 4000 м 9/6 450 м
[St Ac trans]
+29.0 +24.8 78 +41 +45 опасность
перегрева
1001.3 941.5 0.1
12 19.09 З 1 4000 м 10/5 750 м
[Sc As trans]
+27.2 +24.1 83 +38 +38 очень
душно
1001.3 941.3 +29.6 0.1
15 19.09 штиль 0 4000 м 10/6 750 м
[Sc As trans]
+25.8 +24.4 92 +36 +36 очень
душно
1003.5 943.0 0.1
18 19.09 штиль 0 4000 м 10/6 750 м
[Sc As trans]
+25.0 +24.1 95 +34 +34 очень
душно
1004.7 943.9 0.1
21 19.09 штиль 0 4000 м 10/6 750 м
[Sc As trans]
+24.6 +23.7 95 +33 +33 очень
душно
1004.0 943.2 0.1
00 20.09 штиль 0 4000 м 10/6 600 м
[Sc As trans]
+24.4 +23.3 94 +33 +33 очень
душно
1003.2 942.5 0.1
03 20.09 СЗ 1 4000 м {дождь} 10/6 450 м
[St As trans]
+24.8 +23.1 90 +33 +34 очень
душно
1004.8 944.0 +23.5 0.1
06 20.09 Ю 1 4000 м 9/6 450 м
[St Ac trans]
+27.0 +24.2 85 +38 +43 очень
душно
1003.9 943.5
09 20.09 ЮЗ 2 4000 м 9/6 450 м
[St Ac trans]
+26.8 +23.7 83 +37 +39 очень
душно
1002.4 942.1
12 20.09 штиль 0 4000 м 9/4 600 м
[Sc As trans]
+26.4 +23.9 86 +36 +36 очень
душно
1001.5 941.2 +28.0
15 20.09 ЮЗ 1 4000 м 8/5 450 м
[St Ac trans]
+24.8 +23.1 90 +33 +33 очень
душно
1004.7 943.9
18 20.09 штиль 0 2000 м слабый дождь 10/6 450 м
[Frnb As op]
+24.3 +23.3 94 +33 +33 очень
душно
1005.5 944.7 0.0
21 20.09 штиль 0 4000 м {дождь} 10/6 450 м
[St As op]
+24.0 +23.0 94 +32 +32 очень
душно
1004.1 943.1 0.0
00 21.09 Ю 1 4000 м в посл. час дождь 10/6 450 м
[St As op]
+23.5 +22.7 95 +31 +31 очень
душно
1004.8 943.8 3
03 21.09 ЮЗ 2 2000 м слабый дождь 10/6 450 м
[Frnb As op]
+24.2 +23.0 93 +32 +33 очень
душно
1003.9 943.1 +22.5 4
06 21.09 ЮЗ 2 4000 м {дождь} 8/5 450 м
[St Ac trans]
+28.0 +24.7 82 +40 +46 очень
душно
1004.3 944.1 0.0
09 21.09 ЮЗ 1 4000 м 9/6 600 м
[Cu Sc Ac trans]
+28.8 +24.6 78 +41 +44 опасность
перегрева
1002.4 942.6 0.0

 

Местоположение метеостанции Jagdalpur (Chhattisgarh, Индия): широта 19.08 долгота 82.03 высота над уровнем моря 553 м.

В архиве по умолчанию представлена погода в Jagdalpur за последнюю неделю. Архивные данные за месяц целиком и за предыдущие месяцы, начиная с января 2011 года, Вы можете получить, выбрав интересующий диапазон дат из раскрывающегося списка и нажав кнопку "Ввод!".

Внимание! Время в таблицах - всемирное. Для получения местного времени необходимо прибавить поправку, которая в Jagdalpur равна 5.5 ч.

Смотрите также архив погоды в соседних городах и на ближайших метеорологических станциях:

Погода в Koraput (Orissa, Индия) (78 км)
Погода в Bhawanipatna (Orissa, Индия) (153 км)
Погода в Titlagarh (Orissa, Индия) (190 км)
Погода в Visakhapatnam (Andhra Pradesh, Индия) (197 км)
Погода в Bhadrachalam (Telangana, Индия) (198 км)
Погода в Tuni (Andhra Pradesh, Индия) (200 км)
Погода в Visakhapatnam Walt (Andhra Pradesh, Индия) (204 км)
Погода в Kalingapatam (Andhra Pradesh, Индия) (236 км)
Погода в Kakinada (Andhra Pradesh, Индия) (238 км)
Погода в Raipur (Chhattisgarh, Индия) (242 км)

Пояснения к столбцам:

Ветер - указаны скорость ветра в м/с - средняя за 10 мин, порывы в срок и между сроками (в фигурных скобках) и направление, откуда дует ветер: С - северный, СВ - северо-восточный, В - восточный, ЮВ - юго-восточный, Ю - южный, ЮЗ - юго-западный, З - западный, СЗ - северо-западный.
Видимость - горизонтальная дальность видимости в метрах или километрах. При видимости от 1 до 10 км при отсутствии осадков обычно наблюдается дымка, при ухудшении видимости до 1 км и менее - туман. В сухую погоду видимость может ухудшаться дымом, пылью или мглою.
Явления - указаны атмосферные явления, наблюдавшиеся в срок или в последний час перед сроком; фигурными скобками обозначены явления, наблюдавшиеся между сроками (за 1-3 часа до срока); квадратными скобками обозначены град или гололедные отложения с указанием их диаметра в мм.
Облачность - указаны через наклонную черту общая и нижняя облачность в баллах и высота нижней границы облаков в метрах; квадратными скобками обозначены формы облаков: Ci - перистые, Cs - перисто-слоистые, Cc - перисто-кучевые, Ac - высококучевые, As - высокослоистые, Sc - слоисто-кучевые, Ns - слоисто-дождевые, Cu - кучевые, Cb - кучево-дождевые. Подробнее классификацию облаков см. в Атласе облаков (PDF).
T - Температура воздуха - температура, измеренная на высоте 2 м над землей.
Td - Температура точки росы - температура, при понижении до которой содержащийся в воздухе водяной пар достигнет насыщения.
f - Относительная влажность воздуха - влажноcть воздуха, измеренная на высоте 2 м над землей.
Te - Эффективная температура - температура, которую ощущает одетый по сезону человек в тени. Характеристика душности погоды. При расчете учитывается влияние влажности воздуха и скорости ветра на теплоощущения человека.
Tes - Эффективная температура на солнце - температура, которую ощущает человек, с поправкой на солнечный нагрев. Характеристика знойности погоды. Зависит от высоты солнца над горизонтом, облачности и скорости ветра. Ночью, в пасмурную погоду, а также при ветре 12 м/с и более поправка равна нулю.
P - Атмосферное давление - приведенное к уровню моря атмосферное давление.
Po - Атмосферное давление - измеренное на уровне метеостанции атмосферное давление.
Tmin - Минимальная температура - минимум температуры воздуха на высоте 2 м над землей.
Tmax - Максимальная температура - максимум температуры воздуха на высоте 2 м над землей.
R - Количество осадков - Количество выпавших осадков за период времени, мм. При наведении курсора мыши на число - период времени, за который выпало указанное количество осадков.
R24 - Количество осадков - Количество выпавших осадков за 24 часа, мм.
S - Снежный покров - Высота снежного покрова, см. При наведении курсора мыши на число - состояние снежного покрова и степень покрытия местности в баллах.